Back to catalog

STARLINK-32792

AliveCommunicationsVLEO
NORAD 62504·PAYLOAD·🇺🇸 United States

Launched Jan 6, 2025 from Cape Canaveral Space Force Station

Loading…

Next Passes (next 24 hours)

TLE

FreshSource: CelesTrak SupGP

Epoch: Sep 14, 2026, 20:57 UTC

1 62504C 25003T   26257.87340278 -.00021888  00000+0 -79277-3 0  2578
2 62504  43.0021 300.1305 0001568 270.2202 307.1537 15.27589964    19

Track STARLINK-32792 in real time with AllMySat

Download on the App Store